BAW845 EPWA-EGLL

Flight info

Callsign BAW845
Flight time N/A
Altitude 36000
Route DCT LOLSI T174 INDIG DCT SUBIX DCT PENEK DCT HLZ DCT AMSAN L980 RKN DCT NIGUG DCT ABNED L980 LOGAN LOGAN2H
Aircraft A21N/M-SDE3FGHIJ1LRWXYZ/SB1G1

Departure

Time 2026-05-04 16:56
Airport Warsaw Chopin Airport (EPWA)

Arrival

Time N/A
Airport London Heathrow Airport (EGLL)
Time Latitude Longitude Altitude Speed Heading
2026-05-04 15:41 52.17479 20.96954 344 ft 0 kts 242°
2026-05-04 16:41 52.17502 20.97027 344 ft 4 kts 262°
2026-05-04 16:42 52.17478 20.97073 344 ft 0 kts 332°
2026-05-04 16:46 52.17529 20.97029 351 ft 8 kts 332°
2026-05-04 16:47 52.17626 20.96937 356 ft 7 kts 305°
2026-05-04 16:47 52.17574 20.96756 351 ft 11 kts 237°
2026-05-04 16:48 52.17457 20.96470 344 ft 12 kts 242°
2026-05-04 16:48 52.17428 20.96397 346 ft 6 kts 213°
2026-05-04 16:49 52.17324 20.96454 347 ft 10 kts 152°
2026-05-04 16:49 52.17173 20.96587 353 ft 14 kts 151°
2026-05-04 16:50 52.16974 20.96760 347 ft 18 kts 153°
2026-05-04 16:50 52.16746 20.96959 344 ft 15 kts 152°
2026-05-04 16:51 52.16623 20.97196 348 ft 15 kts 114°
2026-05-04 16:51 52.16587 20.97323 353 ft 8 kts 115°
2026-05-04 16:51 52.16533 20.97517 347 ft 12 kts 114°
2026-05-04 16:52 52.16463 20.97767 344 ft 8 kts 114°
2026-05-04 16:52 52.16411 20.97803 358 ft 8 kts 204°
2026-05-04 16:53 52.16387 20.97784 344 ft 0 kts 206°
2026-05-04 16:53 52.16376 20.97776 344 ft 3 kts 206°
2026-05-04 16:54 52.16344 20.97750 344 ft 7 kts 206°
2026-05-04 16:55 52.16340 20.97548 349 ft 42 kts 295°
2026-05-04 16:55 52.17005 20.95212 541 ft 154 kts 297°
2026-05-04 16:56 52.17855 20.92014 1663 ft 169 kts 293°
2026-05-04 16:56 52.18561 20.85637 3414 ft 223 kts 268°
2026-05-04 16:57 52.18541 20.82959 3922 ft 248 kts 268°
2026-05-04 16:57 52.18518 20.77138 5677 ft 261 kts 268°
2026-05-04 16:58 52.18471 20.68224 8523 ft 266 kts 268°
2026-05-04 16:58 52.18452 20.65187 9487 ft 269 kts 267°
2026-05-04 16:59 52.18408 20.58788 10602 ft 304 kts 267°
2026-05-04 17:00 52.18256 20.43845 13297 ft 341 kts 266°
2026-05-04 17:00 52.18125 20.32106 15536 ft 351 kts 267°
2026-05-04 17:01 52.18052 20.24080 16963 ft 357 kts 267°
2026-05-04 17:01 52.17973 20.15915 18319 ft 364 kts 267°
2026-05-04 17:02 52.18023 20.07582 19404 ft 374 kts 273°
2026-05-04 17:02 52.18524 19.99034 20429 ft 383 kts 274°
2026-05-04 17:03 52.18781 19.94689 20966 ft 387 kts 274°
2026-05-04 17:03 52.19037 19.90363 21501 ft 391 kts 274°
2026-05-04 17:03 52.19567 19.81468 22597 ft 398 kts 274°
2026-05-04 17:04 52.20072 19.72403 23623 ft 405 kts 274°
2026-05-04 17:04 52.20586 19.63138 24574 ft 410 kts 274°
2026-05-04 17:05 52.21103 19.53834 25554 ft 414 kts 274°
2026-05-04 17:05 52.21605 19.44441 26487 ft 418 kts 274°
2026-05-04 17:06 52.22111 19.34958 27365 ft 422 kts 274°
2026-05-04 17:06 52.22372 19.30179 27788 ft 424 kts 274°
2026-05-04 17:07 52.22876 19.20625 28586 ft 428 kts 274°
2026-05-04 17:07 52.23046 19.17358 28861 ft 429 kts 274°
2026-05-04 17:07 52.23384 19.10931 29365 ft 431 kts 274°
2026-05-04 17:07 52.23633 19.06035 29834 ft 431 kts 274°
2026-05-04 17:08 52.23872 19.01182 30331 ft 428 kts 274°
2026-05-04 17:08 52.24354 18.91547 31245 ft 424 kts 274°
2026-05-04 17:08 52.24587 18.86771 31690 ft 422 kts 274°
2026-05-04 17:09 52.24824 18.82009 32121 ft 420 kts 274°
2026-05-04 17:09 52.25053 18.77277 32527 ft 418 kts 274°
2026-05-04 17:09 52.25281 18.72549 32932 ft 417 kts 274°
2026-05-04 17:10 52.25720 18.63153 33683 ft 414 kts 274°
2026-05-04 17:10 52.26438 18.49133 34622 ft 411 kts 274°
2026-05-04 17:11 52.26675 18.44492 34880 ft 410 kts 274°
2026-05-04 17:11 52.26896 18.39849 35104 ft 410 kts 273°
2026-05-04 17:11 52.27295 18.30558 35553 ft 410 kts 273°
2026-05-04 17:12 52.27490 18.25914 35763 ft 410 kts 274°
2026-05-04 17:12 52.27905 18.16619 36198 ft 410 kts 274°
2026-05-04 17:13 52.28455 18.02679 36810 ft 410 kts 273°
2026-05-04 17:14 52.29008 17.88823 37381 ft 409 kts 273°
2026-05-04 17:14 52.29194 17.84188 37572 ft 409 kts 273°
2026-05-04 17:14 52.29567 17.74912 37893 ft 409 kts 273°
2026-05-04 17:15 52.29748 17.70263 37963 ft 410 kts 273°
2026-05-04 17:16 52.30451 17.51997 37937 ft 409 kts 273°
2026-05-04 17:17 52.31128 17.33406 37926 ft 410 kts 272°
2026-05-04 17:18 52.31793 17.14823 37930 ft 410 kts 272°
2026-05-04 17:19 52.32420 16.96259 37932 ft 408 kts 272°
2026-05-04 17:20 52.33028 16.77785 37938 ft 408 kts 272°
2026-05-04 17:20 52.33456 16.63877 37935 ft 408 kts 272°
2026-05-04 17:21 52.34003 16.45369 37932 ft 406 kts 272°
2026-05-04 17:22 52.34258 16.36149 37928 ft 406 kts 272°
2026-05-04 17:23 52.34774 16.17701 37930 ft 406 kts 271°
2026-05-04 17:24 52.35121 16.03866 37934 ft 406 kts 271°
2026-05-04 17:25 52.35579 15.85389 37939 ft 406 kts 271°
2026-05-04 17:26 52.35958 15.66919 37936 ft 406 kts 270°
2026-05-04 17:27 52.36186 15.43857 37937 ft 405 kts 270°
2026-05-04 17:28 52.36351 15.26994 37929 ft 405 kts 270°
2026-05-04 17:29 52.36561 14.99361 37933 ft 403 kts 270°
2026-05-04 17:31 52.36709 14.76471 37940 ft 402 kts 270°
2026-05-04 17:32 52.36767 14.53571 37935 ft 403 kts 269°
2026-05-04 17:33 52.36834 14.35247 37932 ft 403 kts 269°
2026-05-04 17:34 52.36819 14.16918 37947 ft 403 kts 269°
2026-05-04 17:35 52.36759 13.94002 37931 ft 403 kts 268°
2026-05-04 17:36 52.36737 13.84834 37932 ft 403 kts 269°
2026-05-04 17:36 52.36734 13.75664 37933 ft 403 kts 268°
2026-05-04 17:37 52.36681 13.66495 37936 ft 403 kts 268°
2026-05-04 17:37 52.36621 13.57345 37934 ft 403 kts 268°
2026-05-04 17:38 52.36575 13.48171 37942 ft 403 kts 269°
2026-05-04 17:38 52.36549 13.39005 37936 ft 403 kts 268°
2026-05-04 17:39 52.36430 13.25257 37936 ft 403 kts 268°
2026-05-04 17:39 52.36359 13.16102 37937 ft 402 kts 268°
2026-05-04 17:40 52.36245 13.06995 37941 ft 403 kts 268°
2026-05-04 17:40 52.36153 12.97827 37958 ft 403 kts 268°
2026-05-04 17:41 52.36070 12.88683 37944 ft 402 kts 268°
2026-05-04 17:41 52.35959 12.79545 37941 ft 402 kts 268°
2026-05-04 17:42 52.35831 12.70408 37950 ft 402 kts 268°
2026-05-04 17:42 52.35705 12.61258 37951 ft 402 kts 268°
2026-05-04 17:43 52.35574 12.52120 37959 ft 402 kts 268°
2026-05-04 17:43 52.35454 12.42984 37964 ft 401 kts 267°
2026-05-04 17:44 52.35312 12.33845 37961 ft 402 kts 267°
2026-05-04 17:44 52.35173 12.24694 37964 ft 402 kts 267°
2026-05-04 17:45 52.34999 12.15538 37967 ft 402 kts 267°
2026-05-04 17:45 52.34861 12.06395 37967 ft 402 kts 267°
2026-05-04 17:46 52.34701 11.97251 37970 ft 402 kts 266°
2026-05-04 17:46 52.34498 11.88103 37970 ft 403 kts 266°
2026-05-04 17:47 52.34306 11.78945 37968 ft 403 kts 266°
2026-05-04 17:47 52.34123 11.69790 37969 ft 403 kts 266°
2026-05-04 17:48 52.33923 11.60629 37967 ft 403 kts 266°
2026-05-04 17:48 52.33706 11.51538 37966 ft 403 kts 266°
2026-05-04 17:49 52.33515 11.42375 37967 ft 405 kts 266°
2026-05-04 17:49 52.33295 11.33082 37961 ft 406 kts 266°
2026-05-04 17:50 52.33046 11.23854 37963 ft 407 kts 265°
2026-05-04 17:50 52.32798 11.14612 37966 ft 407 kts 265°
2026-05-04 17:51 52.32561 11.05420 37961 ft 407 kts 266°
2026-05-04 17:51 52.32315 10.96179 37954 ft 407 kts 265°
2026-05-04 17:52 52.32058 10.86904 37947 ft 410 kts 265°
2026-05-04 17:52 52.31787 10.77586 37940 ft 410 kts 265°
2026-05-04 17:53 52.31509 10.68272 37935 ft 410 kts 265°
2026-05-04 17:53 52.31233 10.58955 37939 ft 410 kts 265°
2026-05-04 17:54 52.30951 10.49641 37935 ft 411 kts 265°
2026-05-04 17:54 52.30660 10.40317 37935 ft 412 kts 265°
2026-05-04 17:55 52.30336 10.30930 37949 ft 414 kts 265°
2026-05-04 17:55 52.30022 10.21532 37949 ft 415 kts 265°
2026-05-04 17:56 52.29701 10.12114 37958 ft 415 kts 265°
2026-05-04 17:56 52.29364 10.02703 37965 ft 415 kts 265°
2026-05-04 17:57 52.29033 9.93302 37963 ft 415 kts 265°
2026-05-04 17:57 52.28678 9.83898 37971 ft 415 kts 265°
2026-05-04 17:58 52.28335 9.74573 37967 ft 414 kts 265°
2026-05-04 17:58 52.27981 9.65183 37966 ft 414 kts 265°
2026-05-04 17:59 52.27596 9.55802 37950 ft 414 kts 265°
2026-05-04 18:00 52.27054 9.41725 37941 ft 414 kts 265°
2026-05-04 18:00 52.26670 9.32339 37960 ft 414 kts 264°
2026-05-04 18:01 52.26270 9.22948 37968 ft 414 kts 264°
2026-05-04 18:01 52.25882 9.13566 37967 ft 414 kts 264°
2026-05-04 18:02 52.25261 8.99500 37965 ft 414 kts 264°
2026-05-04 18:02 52.24827 8.90138 37982 ft 413 kts 264°
2026-05-04 18:03 52.24393 8.80809 37969 ft 412 kts 264°
2026-05-04 18:03 52.23962 8.71501 37960 ft 412 kts 264°
2026-05-04 18:04 52.23549 8.62183 37959 ft 412 kts 264°
2026-05-04 18:05 52.22883 8.48207 37968 ft 412 kts 264°
2026-05-04 18:05 52.22420 8.38902 37956 ft 413 kts 263°
2026-05-04 18:06 52.21713 8.24872 37964 ft 414 kts 263°
2026-05-04 18:06 52.21244 8.15518 37966 ft 414 kts 263°
2026-05-04 18:07 52.20761 8.06158 37968 ft 414 kts 263°
2026-05-04 18:07 52.20259 7.96800 37968 ft 414 kts 263°
2026-05-04 18:08 52.19755 7.87452 37973 ft 415 kts 263°
2026-05-04 18:08 52.19243 7.78064 37966 ft 416 kts 263°
2026-05-04 18:09 52.18280 7.60885 37965 ft 416 kts 262°
2026-05-04 18:10 52.17755 7.51510 37965 ft 415 kts 262°
2026-05-04 18:10 52.17223 7.42074 37976 ft 415 kts 262°
2026-05-04 18:11 52.16706 7.32751 37977 ft 417 kts 263°
2026-05-04 18:11 52.16177 7.23318 37977 ft 417 kts 262°
2026-05-04 18:12 52.15619 7.13933 37976 ft 417 kts 262°
2026-05-04 18:12 52.15039 7.04536 37975 ft 417 kts 262°
2026-05-04 18:13 52.14450 6.95140 37976 ft 417 kts 262°
2026-05-04 18:14 52.13592 6.81009 37978 ft 420 kts 262°
2026-05-04 18:14 52.12991 6.71553 37973 ft 420 kts 262°
2026-05-04 18:15 52.11716 6.52666 37970 ft 420 kts 262°
2026-05-04 18:16 52.11141 6.43214 37979 ft 420 kts 262°
2026-05-04 18:16 52.10531 6.33751 37972 ft 423 kts 261°
2026-05-04 18:17 52.09532 6.19510 37971 ft 423 kts 261°
2026-05-04 18:18 52.08554 6.05247 37969 ft 423 kts 261°
2026-05-04 18:18 52.07889 5.95763 37965 ft 423 kts 261°
2026-05-04 18:19 52.06867 5.81496 37966 ft 425 kts 261°
2026-05-04 18:19 52.06195 5.71957 37968 ft 425 kts 261°
2026-05-04 18:20 52.05483 5.62487 37971 ft 425 kts 261°
2026-05-04 18:20 52.04780 5.52893 37971 ft 424 kts 261°
2026-05-04 18:21 52.04057 5.43436 37972 ft 424 kts 261°
2026-05-04 18:21 52.03341 5.33917 37975 ft 426 kts 261°
2026-05-04 18:22 52.02632 5.24367 37973 ft 426 kts 261°
2026-05-04 18:22 52.01897 5.14832 37977 ft 426 kts 261°
2026-05-04 18:23 52.01156 5.05280 37980 ft 426 kts 260°
2026-05-04 18:23 52.00389 4.95742 37980 ft 426 kts 260°
2026-05-04 18:24 51.99642 4.86210 37994 ft 427 kts 261°
2026-05-04 18:24 51.98919 4.76638 37985 ft 428 kts 262°
2026-05-04 18:25 51.98305 4.67029 37966 ft 428 kts 262°
2026-05-04 18:25 51.97683 4.57429 37957 ft 428 kts 262°
2026-05-04 18:26 51.97019 4.47836 37969 ft 428 kts 262°
2026-05-04 18:26 51.96418 4.38239 37967 ft 428 kts 262°
2026-05-04 18:27 51.95775 4.28632 37963 ft 429 kts 261°
2026-05-04 18:27 51.95122 4.19016 37969 ft 429 kts 261°
2026-05-04 18:28 51.94487 4.09401 37981 ft 429 kts 261°
2026-05-04 18:28 51.93837 3.99850 37985 ft 429 kts 261°
2026-05-04 18:29 51.93158 3.90246 38005 ft 429 kts 261°
2026-05-04 18:29 51.92461 3.80632 37992 ft 430 kts 261°
2026-05-04 18:30 51.91431 3.66175 37997 ft 430 kts 261°
2026-05-04 18:31 51.90717 3.56546 37990 ft 430 kts 261°
2026-05-04 18:31 51.89987 3.46931 38001 ft 430 kts 260°
2026-05-04 18:32 51.89241 3.37320 38011 ft 431 kts 261°
2026-05-04 18:32 51.88509 3.27668 38021 ft 432 kts 261°
2026-05-04 18:33 51.87776 3.18030 38018 ft 432 kts 261°
2026-05-04 18:33 51.87039 3.08377 38016 ft 432 kts 261°
2026-05-04 18:34 51.86302 2.98734 38017 ft 432 kts 261°
2026-05-04 18:34 51.85538 2.89097 38018 ft 432 kts 261°
2026-05-04 18:35 51.84777 2.79449 38008 ft 432 kts 260°
2026-05-04 18:35 51.84009 2.69796 38015 ft 432 kts 261°
2026-05-04 18:36 51.83254 2.60211 37615 ft 426 kts 261°
2026-05-04 18:36 51.82868 2.55475 37070 ft 425 kts 260°
2026-05-04 18:36 51.82467 2.50743 36443 ft 425 kts 260°
2026-05-04 18:36 51.82079 2.46002 35821 ft 425 kts 260°
2026-05-04 18:37 51.81698 2.41266 35233 ft 425 kts 260°
2026-05-04 18:37 51.81301 2.36597 34618 ft 425 kts 259°
2026-05-04 18:37 51.80891 2.31855 33939 ft 427 kts 260°
2026-05-04 18:37 51.80497 2.27092 33164 ft 428 kts 260°
2026-05-04 18:38 51.80108 2.22330 32475 ft 427 kts 260°
2026-05-04 18:38 51.79695 2.17599 31841 ft 425 kts 259°
2026-05-04 18:38 51.79296 2.12886 31265 ft 423 kts 260°
2026-05-04 18:38 51.78891 2.08197 30702 ft 419 kts 259°
2026-05-04 18:39 51.78489 2.03555 30184 ft 416 kts 259°
2026-05-04 18:39 51.78090 1.98941 29596 ft 413 kts 260°
2026-05-04 18:39 51.77699 1.94364 28987 ft 410 kts 260°
2026-05-04 18:39 51.77304 1.89828 28433 ft 406 kts 260°
2026-05-04 18:40 51.76907 1.85328 27903 ft 402 kts 260°
2026-05-04 18:40 51.76505 1.80876 27364 ft 399 kts 260°
2026-05-04 18:40 51.76118 1.76463 26823 ft 396 kts 260°
2026-05-04 18:40 51.75722 1.72086 26282 ft 393 kts 259°
2026-05-04 18:41 51.75312 1.67743 25767 ft 390 kts 259°
2026-05-04 18:41 51.74906 1.63430 25289 ft 387 kts 259°
2026-05-04 18:41 51.74573 1.59123 25054 ft 388 kts 263°
2026-05-04 18:41 51.74312 1.54797 25007 ft 387 kts 262°
2026-05-04 18:42 51.74025 1.50478 25010 ft 387 kts 262°
2026-05-04 18:42 51.73752 1.46166 25005 ft 383 kts 262°
2026-05-04 18:42 51.73488 1.41913 24356 ft 381 kts 262°
2026-05-04 18:42 51.73206 1.37644 23396 ft 384 kts 262°
2026-05-04 18:43 51.72923 1.33343 22295 ft 387 kts 262°
2026-05-04 18:43 51.72622 1.29028 21207 ft 388 kts 262°
2026-05-04 18:43 51.72319 1.24703 20218 ft 388 kts 262°
2026-05-04 18:43 51.72046 1.20392 19338 ft 384 kts 263°
2026-05-04 18:44 51.71794 1.16275 18485 ft 380 kts 262°
2026-05-04 18:44 51.71709 1.14904 18284 ft 379 kts 262°
2026-05-04 18:44 51.71245 1.07904 17394 ft 368 kts 263°
2026-05-04 18:44 51.70970 1.03848 16949 ft 360 kts 262°
2026-05-04 18:45 51.70683 0.99880 16520 ft 353 kts 263°
2026-05-04 18:45 51.70412 0.95967 16098 ft 350 kts 263°
2026-05-04 18:45 51.70162 0.92125 15680 ft 350 kts 263°
2026-05-04 18:45 51.69913 0.88431 15263 ft 350 kts 263°
2026-05-04 18:46 51.69636 0.84550 14829 ft 350 kts 263°
2026-05-04 18:46 51.69363 0.80924 14419 ft 351 kts 263°
2026-05-04 18:46 51.69074 0.77038 13979 ft 351 kts 263°
2026-05-04 18:46 51.68804 0.73122 13500 ft 352 kts 264°
2026-05-04 18:47 51.68548 0.69210 13026 ft 352 kts 264°
2026-05-04 18:47 51.68281 0.65283 12565 ft 350 kts 264°
2026-05-04 18:47 51.68004 0.61402 12131 ft 347 kts 263°
2026-05-04 18:47 51.67767 0.58111 11758 ft 341 kts 263°
2026-05-04 18:48 51.67502 0.54504 11355 ft 335 kts 263°
2026-05-04 18:48 51.67221 0.50823 11023 ft 328 kts 263°
2026-05-04 18:48 51.66942 0.47255 10751 ft 318 kts 263°
2026-05-04 18:48 51.66684 0.43769 10477 ft 309 kts 263°
2026-05-04 18:49 51.66432 0.40387 10217 ft 301 kts 263°
2026-05-04 18:49 51.66194 0.37085 9958 ft 293 kts 263°
2026-05-04 18:49 51.65960 0.33868 9681 ft 285 kts 263°
2026-05-04 18:49 51.65791 0.31652 9480 ft 281 kts 263°
2026-05-04 18:50 51.65558 0.28570 9194 ft 274 kts 263°
2026-05-04 18:50 51.65342 0.25623 8910 ft 270 kts 263°
2026-05-04 18:50 51.65123 0.22667 8628 ft 264 kts 263°
2026-05-04 18:50 51.64898 0.19759 8346 ft 259 kts 263°
2026-05-04 18:51 51.64677 0.16912 8080 ft 253 kts 263°
2026-05-04 18:51 51.64484 0.14273 7993 ft 242 kts 262°
2026-05-04 18:51 51.64236 0.11608 7993 ft 241 kts 261°
2026-05-04 18:51 51.63971 0.08970 8008 ft 238 kts 261°
2026-05-04 18:52 51.63708 0.06382 8016 ft 238 kts 261°
2026-05-04 18:52 51.63439 0.03734 8024 ft 238 kts 261°
2026-05-04 18:52 51.63179 0.01193 8021 ft 237 kts 261°
2026-05-04 18:52 51.62911 -0.01433 8054 ft 238 kts 261°